TimeCDT,TemperatureF,Dew PointF,Humidity,Sea Level PressureIn,VisibilityMPH,Wind Direction,Wind SpeedMPH,Gust SpeedMPH,PrecipitationIn,Events,Conditions,WindDirDegrees,DateUTC
12:55 AM,62.6,42.8,48,29.79,10.0,SSW,12.7,-,N/A,,Clear,200,2013-03-16 05:55:00
1:35 AM,62.6,42.8,48,29.79,10.0,SSW,11.5,18.4,N/A,,Clear,210,2013-03-16 06:35:00
1:55 AM,62.6,42.8,48,29.79,10.0,SSW,11.5,-,N/A,,Clear,210,2013-03-16 06:55:00
2:15 AM,62.6,41.0,45,29.78,10.0,SSW,11.5,17.3,N/A,,Clear,210,2013-03-16 07:15:00
2:35 AM,62.6,41.0,45,29.78,10.0,SSW,12.7,17.3,N/A,,Clear,200,2013-03-16 07:35:00
2:55 AM,62.6,39.2,42,29.78,10.0,SSW,8.1,-,N/A,,Clear,210,2013-03-16 07:55:00
3:15 AM,62.6,39.2,42,29.78,10.0,SSW,11.5,-,N/A,,Clear,210,2013-03-16 08:15:00
3:35 AM,60.8,39.2,45,29.78,10.0,SSW,8.1,-,N/A,,Clear,210,2013-03-16 08:35:00
3:55 AM,60.8,39.2,45,29.78,10.0,SSW,9.2,-,N/A,,Clear,210,2013-03-16 08:55:00
4:15 AM,60.8,39.2,45,29.78,10.0,SSW,9.2,-,N/A,,Clear,210,2013-03-16 09:15:00
4:35 AM,60.8,41.0,48,29.77,10.0,SSW,9.2,-,N/A,,Clear,210,2013-03-16 09:35:00
4:55 AM,60.8,41.0,48,29.77,10.0,SSW,9.2,-,N/A,,Clear,210,2013-03-16 09:55:00
5:15 AM,59.0,41.0,51,29.77,10.0,SSW,10.4,-,N/A,,Clear,210,2013-03-16 10:15:00
5:35 AM,59.0,41.0,51,29.77,10.0,SSW,8.1,-,N/A,,Clear,210,2013-03-16 10:35:00
5:55 AM,59.0,41.0,51,29.77,10.0,SSW,9.2,-,N/A,,Clear,210,2013-03-16 10:55:00
6:15 AM,59.0,42.8,55,29.78,10.0,SSW,8.1,-,N/A,,Clear,200,2013-03-16 11:15:00
6:35 AM,57.2,42.8,59,29.78,10.0,SSW,6.9,-,N/A,,Clear,210,2013-03-16 11:35:00
7:15 AM,55.4,42.8,63,29.84,10.0,NNW,6.9,-,N/A,,Clear,340,2013-03-16 12:15:00
7:35 AM,55.4,41.0,58,29.84,10.0,NW,3.5,-,N/A,,Clear,320,2013-03-16 12:35:00
7:55 AM,51.8,41.0,67,29.84,10.0,Calm,Calm,-,N/A,,Clear,0,2013-03-16 12:55:00
8:15 AM,53.6,42.8,67,29.84,10.0,Calm,Calm,-,N/A,,Clear,0,2013-03-16 13:15:00
8:35 AM,57.2,44.6,63,29.84,10.0,Calm,Calm,-,N/A,,Clear,0,2013-03-16 13:35:00
8:55 AM,60.8,44.6,55,29.85,10.0,Calm,Calm,-,N/A,,Clear,0,2013-03-16 13:55:00
9:15 AM,62.6,44.6,52,29.85,10.0,SSW,3.5,-,N/A,,Clear,200,2013-03-16 14:15:00
9:35 AM,64.4,44.6,49,29.85,10.0,SSW,5.8,-,N/A,,Clear,200,2013-03-16 14:35:00
9:55 AM,64.4,44.6,49,29.85,10.0,South,5.8,-,N/A,,Clear,190,2013-03-16 14:55:00
10:15 AM,64.4,44.6,49,29.85,10.0,SSW,6.9,-,N/A,,Clear,200,2013-03-16 15:15:00
10:35 AM,66.2,46.4,49,29.85,10.0,SW,5.8,-,N/A,,Clear,230,2013-03-16 15:35:00
10:55 AM,66.2,46.4,49,29.85,10.0,SSW,8.1,-,N/A,,Clear,210,2013-03-16 15:55:00
11:15 AM,66.2,46.4,49,29.85,10.0,WSW,8.1,-,N/A,,Clear,240,2013-03-16 16:15:00
11:35 AM,66.2,46.4,49,29.85,10.0,WSW,6.9,-,N/A,,Clear,240,2013-03-16 16:35:00
11:55 AM,69.8,48.2,46,29.86,10.0,WSW,6.9,-,N/A,,Clear,240,2013-03-16 16:55:00
12:15 PM,69.8,46.4,43,29.85,10.0,South,5.8,-,N/A,,Clear,180,2013-03-16 17:15:00
12:35 PM,69.8,46.4,43,29.85,10.0,Calm,Calm,-,N/A,,Clear,0,2013-03-16 17:35:00
12:55 PM,69.8,46.4,43,29.84,10.0,North,4.6,-,N/A,,Clear,10,2013-03-16 17:55:00
1:15 PM,69.8,46.4,43,29.84,10.0,SW,4.6,-,N/A,,Clear,230,2013-03-16 18:15:00
1:35 PM,69.8,46.4,43,29.83,10.0,Calm,Calm,-,N/A,,Clear,0,2013-03-16 18:35:00
1:55 PM,69.8,46.4,43,29.83,10.0,SSE,3.5,-,N/A,,Clear,150,2013-03-16 18:55:00
2:15 PM,71.6,48.2,43,29.82,10.0,NE,3.5,-,N/A,,Clear,50,2013-03-16 19:15:00
2:35 PM,71.6,48.2,43,29.81,10.0,SE,3.5,-,N/A,,Clear,140,2013-03-16 19:35:00
2:55 PM,71.6,48.2,43,29.79,10.0,SSE,4.6,-,N/A,,Clear,150,2013-03-16 19:55:00
3:15 PM,73.4,48.2,41,29.78,10.0,ENE,3.5,-,N/A,,Clear,70,2013-03-16 20:15:00
3:35 PM,73.4,48.2,41,29.77,10.0,South,4.6,-,N/A,,Clear,170,2013-03-16 20:35:00
3:55 PM,73.4,48.2,41,29.77,10.0,Calm,Calm,-,N/A,,Clear,0,2013-03-16 20:55:00
4:15 PM,73.4,48.2,41,29.77,10.0,SSW,5.8,-,N/A,,Clear,200,2013-03-16 21:15:00
4:35 PM,73.4,46.4,38,29.77,10.0,Calm,Calm,-,N/A,,Clear,0,2013-03-16 21:35:00
4:55 PM,73.4,48.2,41,29.76,10.0,NNE,8.1,-,N/A,,Clear,20,2013-03-16 21:55:00
5:15 PM,71.6,46.4,41,29.76,10.0,NE,13.8,-,N/A,,Clear,40,2013-03-16 22:15:00
5:35 PM,68.0,44.6,43,29.77,10.0,NE,19.6,24.2,N/A,,Clear,40,2013-03-16 22:35:00
5:55 PM,64.4,42.8,45,29.77,10.0,NNE,15.0,24.2,N/A,,Clear,30,2013-03-16 22:55:00
6:15 PM,64.4,42.8,45,29.78,10.0,NNE,19.6,24.2,N/A,,Partly Cloudy,30,2013-03-16 23:15:00
6:35 PM,62.6,42.8,48,29.78,10.0,NE,18.4,25.3,N/A,,Scattered Clouds,40,2013-03-16 23:35:00
6:55 PM,62.6,41.0,45,29.79,10.0,NE,15.0,21.9,N/A,,Mostly Cloudy,40,2013-03-16 23:55:00
7:15 PM,60.8,41.0,48,29.80,10.0,NE,18.4,-,N/A,,Partly Cloudy,40,2013-03-17 00:15:00
7:35 PM,59.0,39.2,48,29.80,10.0,NE,15.0,-,N/A,,Clear,40,2013-03-17 00:35:00
7:55 PM,57.2,39.2,51,29.80,10.0,NNE,19.6,23.0,N/A,,Scattered Clouds,30,2013-03-17 00:55:00
8:15 PM,55.4,39.2,54,29.81,10.0,NE,15.0,21.9,N/A,,Mostly Cloudy,40,2013-03-17 01:15:00
8:35 PM,55.4,39.2,54,29.82,9.0,NE,13.8,19.6,N/A,,Overcast,40,2013-03-17 01:35:00
8:55 PM,53.6,39.2,58,29.83,8.0,NNE,12.7,19.6,N/A,,Overcast,30,2013-03-17 01:55:00
9:15 PM,53.6,39.2,58,29.83,9.0,NE,12.7,-,N/A,,Overcast,40,2013-03-17 02:15:00
9:35 PM,53.6,37.4,54,29.84,10.0,NE,15.0,-,N/A,,Overcast,50,2013-03-17 02:35:00
9:55 PM,53.6,37.4,54,29.85,10.0,NE,11.5,-,N/A,,Overcast,50,2013-03-17 02:55:00
10:15 PM,51.8,37.4,58,29.84,10.0,NE,9.2,-,N/A,,Overcast,40,2013-03-17 03:15:00
10:35 PM,51.8,37.4,58,29.85,10.0,NE,8.1,-,N/A,,Overcast,40,2013-03-17 03:35:00
10:55 PM,53.6,37.4,54,29.84,10.0,ENE,9.2,-,N/A,,Overcast,60,2013-03-17 03:55:00
11:15 PM,53.6,37.4,54,29.85,10.0,ENE,9.2,-,N/A,,Overcast,60,2013-03-17 04:15:00
11:35 PM,51.8,37.4,58,29.85,10.0,ENE,11.5,16.1,N/A,,Overcast,70,2013-03-17 04:35:00
11:55 PM,51.8,37.4,58,29.83,10.0,East,11.5,-,N/A,,Mostly Cloudy,90,2013-03-17 04:55:00